Weather in Bingol

Turkey     38°53′47″N   40°28′52″E
temp.,
°C
wind,
m/s
gust,
m/s
humid.,
%
clouds,
%
prec.,
mm/h
press.,
hPa
HPBL,
m
1 july, fri
fri100:00+18n22270 0.0 100711
03:00+17n22290 0.0 100711
06:00+18n22390 0.0 100714
09:00+24ne22290 0.0 1006673
12:00+27sse21202 0.0 10053056
15:00+28s22183 0.0 10033268
18:00+27s22259 0.0 1002368
21:00+20nnw22293 0.0 100411
2 july, sat
sat200:00+16n45635 0.0 100668
03:00+14n44690 0.0 100756
06:00+14n45770 0.0 1008119
09:00+20n45550 0.0 1006668
12:00+24nnw76430 0.0 10061337
15:00+25n98380 0.0 10041153
18:00+23n56430 0.0 10051014
21:00+15nnw57590 0.0 1008150
3 july, sun
sun300:00+11n56690 0.0 1010118
03:00+10n56760 0.0 101097
06:00+9n56760 0.0 1011151
09:00+17n46400 0.0 1009638
12:00+23n66260 0.0 10071539
15:00+24n76220 0.0 10061868
18:00+21n710280 0.0 1006712
21:00+14n55410 0.0 101073
4 july, mon
mon400:00+11n55500 0.0 101177
03:00+10n55590 0.0 101180
06:00+10n45660 0.0 1011107
09:00+19nne47330 0.0 1009749
12:00+24ne67200 0.0 10071601
15:00+27ne56170 0.0 10052219
18:00+24nne58260 0.0 1006427
21:00+17nne45350 0.0 100959
5 july, tue
tue500:00+15nne44460 0.0 101048
03:00+13n44540 0.0 101050
06:00+13n45570 0.0 101183
09:00+21ne46370 0.0 1009953
12:00+26ene66300 0.0 10071991
15:00+27e56265 0.0 10062689
18:00+25ene68305 0.0 1006846
21:00+19nne58410 0.0 1009161